Radiation Dose at Monitoring Post of Fukushima Daini Nuclear Power Station
Date,Time,MP-1(microSv/h),MP-2(microSv/h),MP-3(microSv/h),MP-4(microSv/h),MP-5(microSv/h),MP-6(microSv/h),MP-7(microSv/h),Wind Direction,Wind Velocity(m/s),Rain
2019/07/14,00:00,0.185,0.169,0.278,0.261,0.266,0.139,0.088,south-southeast,2.6,No
2019/07/14,00:10,0.183,0.169,0.278,0.262,0.265,0.139,0.087,south-southeast,2.7,No
2019/07/14,00:20,0.186,0.167,0.279,0.263,0.268,0.140,0.087,south-southeast,3.8,No
2019/07/14,00:30,0.185,0.168,0.279,0.260,0.265,0.138,0.087,south-southeast,3.2,No
2019/07/14,00:40,0.183,0.167,0.275,0.265,0.263,0.140,0.086,south-southeast,2.1,No
2019/07/14,00:50,0.186,0.168,0.279,0.262,0.266,0.138,0.087,south,3.1,No
2019/07/14,01:00,0.185,0.168,0.277,0.262,0.264,0.139,0.088,south,3.6,No
2019/07/14,01:10,0.183,0.167,0.277,0.265,0.266,0.139,0.087,south-southeast,3.7,No
2019/07/14,01:20,0.186,0.168,0.278,0.260,0.267,0.139,0.087,south,4.0,No
2019/07/14,01:30,0.185,0.167,0.276,0.263,0.264,0.139,0.087,south,4.0,No
2019/07/14,01:40,0.184,0.168,0.278,0.263,0.266,0.140,0.088,south,4.0,Yes
2019/07/14,01:50,0.186,0.168,0.279,0.262,0.267,0.138,0.089,northeast,1.4,Yes
2019/07/14,02:00,0.184,0.167,0.276,0.262,0.262,0.138,0.092,south-southeast,2.7,Yes
2019/07/14,02:10,0.184,0.168,0.275,0.257,0.263,0.139,0.094,-,CALM,Yes
2019/07/14,02:20,0.183,0.170,0.273,0.257,0.264,0.142,0.097,south-southeast,4.6,Yes
2019/07/14,02:30,0.184,0.173,0.277,0.262,0.268,0.143,0.098,south,3.2,Yes
2019/07/14,02:40,0.186,0.171,0.275,0.258,0.269,0.143,0.095,south,3.7,Yes
2019/07/14,02:50,0.185,0.170,0.276,0.261,0.266,0.142,0.096,south,3.3,Yes
2019/07/14,03:00,0.186,0.172,0.277,0.259,0.270,0.141,0.095,south-southeast,2.9,Yes
2019/07/14,03:10,0.185,0.171,0.274,0.261,0.266,0.142,0.094,south-southeast,3.1,Yes
2019/07/14,03:20,0.184,0.170,0.275,0.260,0.268,0.141,0.094,south-southeast,2.0,Yes
2019/07/14,03:30,0.185,0.170,0.274,0.259,0.266,0.140,0.093,south-southeast,2.2,Yes
2019/07/14,03:40,0.184,0.170,0.276,0.262,0.265,0.140,0.092,-,CALM,Yes
2019/07/14,03:50,0.187,0.171,0.275,0.258,0.268,0.141,0.093,-,CALM,Yes
2019/07/14,04:00,0.185,0.171,0.275,0.261,0.267,0.140,0.093,west-southwest,3.8,Yes
2019/07/14,04:10,0.185,0.170,0.276,0.260,0.266,0.141,0.094,southeast,1.1,Yes
2019/07/14,04:20,0.186,0.169,0.274,0.258,0.267,0.141,0.092,-,CALM,Yes
2019/07/14,04:30,0.184,0.170,0.277,0.261,0.265,0.140,0.093,southeast,2.3,Yes
2019/07/14,04:40,0.185,0.169,0.274,0.259,0.268,0.141,0.092,southeast,2.8,Yes
2019/07/14,04:50,0.186,0.170,0.274,0.261,0.266,0.140,0.093,east-southeast,2.5,Yes
2019/07/14,05:00,0.184,0.171,0.276,0.259,0.268,0.141,0.093,east-southeast,1.6,Yes
2019/07/14,05:10,0.185,0.169,0.273,0.258,0.266,0.141,0.092,east-southeast,1.3,Yes
2019/07/14,05:20,0.183,0.170,0.276,0.260,0.264,0.140,0.091,east-southeast,1.4,Yes
2019/07/14,05:30,0.185,0.168,0.273,0.257,0.265,0.139,0.091,east-southeast,1.2,Yes
2019/07/14,05:40,0.184,0.169,0.275,0.258,0.264,0.139,0.091,east-southeast,1.0,Yes
2019/07/14,05:50,0.182,0.168,0.275,0.259,0.263,0.138,0.091,-,CALM,Yes
2019/07/14,06:00,0.184,0.168,0.273,0.259,0.266,0.140,0.090,-,CALM,Yes
2019/07/14,06:10,0.184,0.168,0.275,0.259,0.264,0.139,0.091,-,CALM,Yes
2019/07/14,06:20,0.185,0.170,0.272,0.258,0.266,0.140,0.091,northwest,0.6,Yes
2019/07/14,06:30,0.185,0.169,0.276,0.260,0.267,0.141,0.092,north,0.6,Yes
2019/07/14,06:40,0.185,0.168,0.275,0.259,0.263,0.139,0.092,north-northeast,1.1,Yes
2019/07/14,06:50,0.185,0.170,0.273,0.257,0.267,0.141,0.092,north-northeast,0.8,Yes
2019/07/14,07:00,0.185,0.169,0.275,0.261,0.265,0.141,0.093,north-northwest,1.0,Yes
2019/07/14,07:10,0.184,0.170,0.273,0.258,0.264,0.141,0.093,north-northeast,1.2,Yes
2019/07/14,07:20,0.185,0.171,0.276,0.260,0.269,0.141,0.092,north,0.9,Yes
2019/07/14,07:30,0.183,0.169,0.274,0.260,0.264,0.141,0.093,north,1.2,Yes
2019/07/14,07:40,0.185,0.170,0.273,0.257,0.266,0.140,0.091,north,0.7,Yes
2019/07/14,07:50,0.184,0.169,0.275,0.259,0.265,0.140,0.091,east-northeast,3.9,Yes
2019/07/14,08:00,0.183,0.169,0.271,0.256,0.263,0.139,0.092,northeast,1.8,Yes
2019/07/14,08:10,0.185,0.169,0.274,0.257,0.267,0.140,0.091,northeast,1.2,Yes
2019/07/14,08:20,0.182,0.169,0.273,0.258,0.264,0.140,0.091,east-northeast,0.6,Yes
2019/07/14,08:30,0.184,0.170,0.272,0.256,0.263,0.139,0.091,northeast,1.3,Yes
2019/07/14,08:40,0.186,0.169,0.275,0.258,0.267,0.140,0.092,north-northeast,0.6,Yes
2019/07/14,08:50,0.183,0.170,0.273,0.258,0.265,0.140,0.092,north-northeast,1.1,Yes
2019/07/14,09:00,0.186,0.171,0.276,0.258,0.265,0.140,0.092,northeast,0.6,Yes
2019/07/14,09:10,0.185,0.171,0.275,0.261,0.269,0.143,0.094,northeast,1.2,Yes
2019/07/14,09:20,0.186,0.173,0.274,0.258,0.266,0.143,0.095,east-northeast,1.8,Yes
2019/07/14,09:30,0.187,0.172,0.276,0.260,0.267,0.142,0.093,east,1.5,Yes
2019/07/14,09:40,0.185,0.171,0.273,0.259,0.268,0.142,0.094,east-southeast,2.2,Yes
2019/07/14,09:50,0.185,0.172,0.273,0.257,0.264,0.141,0.093,southeast,3.0,Yes
2019/07/14,10:00,0.186,0.171,0.275,0.261,0.265,0.140,0.093,southeast,2.5,Yes
2019/07/14,10:10,0.185,0.172,0.273,0.260,0.267,0.142,0.094,east,1.2,Yes
2019/07/14,10:20,0.186,0.171,0.276,0.257,0.266,0.141,0.094,east-southeast,2.0,Yes
2019/07/14,10:30,0.186,0.171,0.275,0.261,0.268,0.141,0.095,south-southwest,4.8,Yes
2019/07/14,10:40,0.186,0.172,0.274,0.259,0.269,0.143,0.095,south-southwest,7.5,Yes
2019/07/14,10:50,0.188,0.171,0.277,0.261,0.266,0.144,0.096,northeast,1.0,Yes
2019/07/14,11:00,0.187,0.174,0.274,0.262,0.269,0.142,0.096,-,CALM,Yes
2019/07/14,11:10,0.186,0.172,0.275,0.259,0.268,0.145,0.095,-,CALM,Yes
2019/07/14,11:20,0.188,0.172,0.277,0.262,0.267,0.143,0.095,-,CALM,Yes
2019/07/14,11:30,0.185,0.172,0.274,0.260,0.268,0.141,0.096,-,CALM,Yes
2019/07/14,11:40,0.185,0.171,0.275,0.256,0.266,0.142,0.093,north-northwest,1.0,Yes
2019/07/14,11:50,0.185,0.169,0.273,0.260,0.264,0.140,0.092,-,CALM,Yes
2019/07/14,12:00,0.183,0.169,0.270,0.256,0.264,0.139,0.091,north-northwest,0.8,Yes
2019/07/14,12:10,0.183,0.168,0.274,0.254,0.265,0.139,0.090,north-northwest,1.4,Yes
2019/07/14,12:20,0.184,0.167,0.271,0.259,0.263,0.137,0.089,northwest,1.6,Yes
2019/07/14,12:30,0.180,0.167,0.270,0.256,0.261,0.136,0.090,northwest,1.8,Yes
2019/07/14,12:40,0.180,0.165,0.273,0.255,0.264,0.137,0.089,north-northwest,1.8,Yes
2019/07/14,12:50,0.183,0.166,0.272,0.256,0.265,0.137,0.089,north,2.6,Yes
2019/07/14,13:00,0.181,0.168,0.271,0.256,0.263,0.137,0.091,north,2.7,Yes
2019/07/14,13:10,0.184,0.168,0.274,0.258,0.266,0.141,0.091,north,3.4,Yes
2019/07/14,13:20,0.184,0.171,0.272,0.260,0.268,0.141,0.093,northeast,3.3,Yes
2019/07/14,13:30,0.184,0.171,0.274,0.258,0.265,0.142,0.094,north-northeast,3.8,Yes
2019/07/14,13:40,0.186,0.172,0.275,0.259,0.268,0.141,0.093,north-northeast,2.9,Yes
2019/07/14,13:50,0.184,0.172,0.274,0.259,0.268,0.143,0.094,northeast,3.6,Yes
2019/07/14,14:00,0.184,0.171,0.276,0.257,0.266,0.141,0.094,north-northeast,4.8,Yes
2019/07/14,14:10,0.184,0.172,0.274,0.260,0.269,0.142,0.095,northeast,4.6,Yes
2019/07/14,14:20,0.183,0.171,0.274,0.259,0.267,0.142,0.095,north-northeast,3.0,Yes
2019/07/14,14:30,0.184,0.170,0.274,0.257,0.267,0.141,0.094,northeast,4.4,Yes
2019/07/14,14:40,0.182,0.170,0.272,0.258,0.268,0.142,0.095,northeast,4.1,Yes
2019/07/14,14:50,0.183,0.169,0.275,0.256,0.263,0.140,0.092,north-northeast,4.8,Yes
2019/07/14,15:00,0.182,0.170,0.271,0.257,0.267,0.139,0.093,northeast,4.8,Yes
2019/07/14,15:10,0.182,0.167,0.273,0.256,0.265,0.140,0.092,north-northeast,4.8,Yes
2019/07/14,15:20,0.182,0.168,0.270,0.255,0.264,0.138,0.091,north-northeast,4.9,Yes
2019/07/14,15:30,0.180,0.167,0.271,0.257,0.263,0.139,0.090,north-northeast,4.9,Yes
2019/07/14,15:40,0.182,0.168,0.269,0.254,0.261,0.138,0.088,north-northeast,5.5,Yes
2019/07/14,15:50,0.181,0.167,0.270,0.256,0.264,0.136,0.089,north,5.4,No
2019/07/14,16:00,0.180,0.167,0.270,0.254,0.260,0.137,0.089,north,4.3,No
2019/07/14,16:10,0.180,0.166,0.269,0.253,0.263,0.135,0.088,north,5.2,Yes
2019/07/14,16:20,0.179,0.166,0.271,0.254,0.261,0.135,0.088,north,5.1,Yes
2019/07/14,16:30,0.181,0.166,0.268,0.252,0.261,0.135,0.088,north-northwest,4.8,Yes
2019/07/14,16:40,0.180,0.166,0.271,0.255,0.264,0.135,0.088,north,5.1,Yes
2019/07/14,16:50,0.181,0.166,0.268,0.251,0.260,0.136,0.088,north,5.2,Yes
2019/07/14,17:00,0.180,0.166,0.270,0.255,0.263,0.135,0.089,north-northwest,5.1,Yes
2019/07/14,17:10,0.179,0.166,0.268,0.253,0.263,0.136,0.088,north-northwest,4.8,Yes
2019/07/14,17:20,0.180,0.165,0.269,0.253,0.261,0.135,0.087,north-northwest,4.5,Yes
2019/07/14,17:30,0.179,0.165,0.269,0.254,0.262,0.135,0.088,north-northwest,4.7,Yes
2019/07/14,17:40,0.180,0.164,0.267,0.252,0.259,0.136,0.088,north-northwest,4.5,No
2019/07/14,17:50,0.178,0.164,0.269,0.253,0.262,0.134,0.087,north-northwest,4.5,No
2019/07/14,18:00,0.179,0.164,0.267,0.252,0.259,0.134,0.087,north,4.6,No
2019/07/14,18:10,0.179,0.163,0.269,0.252,0.259,0.134,0.086,north-northwest,3.8,No
2019/07/14,18:20,0.178,0.164,0.268,0.253,0.260,0.132,0.085,north,4.3,No
2019/07/14,18:30,0.178,0.163,0.269,0.250,0.258,0.133,0.086,north,6.0,No
2019/07/14,18:40,0.177,0.162,0.268,0.253,0.260,0.132,0.085,north,5.7,No
2019/07/14,18:50,0.179,0.162,0.267,0.252,0.259,0.133,0.084,north-northwest,3.7,No
2019/07/14,19:00,0.178,0.163,0.269,0.252,0.259,0.133,0.086,north,5.9,No
2019/07/14,19:10,0.178,0.161,0.266,0.252,0.258,0.131,0.084,north-northwest,5.0,No
2019/07/14,19:20,0.178,0.164,0.269,0.252,0.258,0.133,0.085,north-northwest,6.2,No
2019/07/14,19:30,0.177,0.162,0.267,0.253,0.260,0.133,0.084,north,7.0,No
2019/07/14,19:40,0.179,0.163,0.268,0.251,0.256,0.132,0.084,north-northwest,4.8,No
2019/07/14,19:50,0.178,0.162,0.268,0.253,0.261,0.133,0.085,north,4.4,No
2019/07/14,20:00,0.179,0.162,0.267,0.253,0.259,0.132,0.084,north,3.2,Yes
2019/07/14,20:10,0.177,0.162,0.269,0.252,0.259,0.133,0.085,north-northwest,4.0,Yes
2019/07/14,20:20,0.178,0.163,0.267,0.253,0.259,0.132,0.083,north-northwest,4.0,Yes
2019/07/14,20:30,0.180,0.163,0.270,0.252,0.258,0.133,0.085,north,3.7,Yes
2019/07/14,20:40,0.177,0.162,0.266,0.253,0.260,0.132,0.084,north-northwest,4.1,Yes
2019/07/14,20:50,0.179,0.162,0.270,0.253,0.257,0.133,0.085,north,3.3,No
2019/07/14,21:00,0.178,0.162,0.268,0.254,0.260,0.133,0.085,north,3.5,Yes
2019/07/14,21:10,0.179,0.163,0.269,0.252,0.258,0.133,0.085,north-northwest,5.3,Yes
2019/07/14,21:20,0.179,0.162,0.269,0.253,0.259,0.133,0.084,north-northwest,3.1,Yes
2019/07/14,21:30,0.179,0.162,0.269,0.253,0.260,0.134,0.084,north-northwest,4.3,Yes
2019/07/14,21:40,0.181,0.163,0.270,0.254,0.259,0.133,0.085,north-northwest,5.1,Yes
2019/07/14,21:50,0.179,0.164,0.267,0.255,0.261,0.134,0.085,north,5.6,Yes
2019/07/14,22:00,0.181,0.163,0.270,0.252,0.259,0.133,0.086,north,4.6,Yes
2019/07/14,22:10,0.178,0.163,0.268,0.254,0.260,0.134,0.086,north-northwest,5.0,No
2019/07/14,22:20,0.181,0.164,0.272,0.252,0.259,0.134,0.085,north-northwest,4.6,Yes
2019/07/14,22:30,0.180,0.163,0.269,0.254,0.260,0.133,0.085,north,5.1,No
2019/07/14,22:40,0.179,0.163,0.270,0.255,0.260,0.134,0.085,north-northwest,3.5,No
2019/07/14,22:50,0.179,0.164,0.269,0.253,0.259,0.134,0.085,north-northwest,4.5,Yes
2019/07/14,23:00,0.178,0.163,0.269,0.254,0.260,0.134,0.084,north-northwest,4.6,No
2019/07/14,23:10,0.181,0.162,0.270,0.253,0.258,0.134,0.085,north,4.5,No
2019/07/14,23:20,0.178,0.163,0.267,0.255,0.260,0.133,0.085,north-northwest,4.0,No
2019/07/14,23:30,0.180,0.162,0.270,0.252,0.258,0.134,0.084,north-northwest,3.9,No
2019/07/14,23:40,0.180,0.164,0.269,0.254,0.259,0.133,0.085,north-northwest,3.9,No
2019/07/14,23:50,0.179,0.162,0.270,0.255,0.260,0.134,0.084,north-northwest,3.8,Yes
